User: anonymous   Login
Location: Unspecified
(0.0000°N, 0.0000°E)
Time: 03:55:15
(UTC+00:00)
Language:

ESTCUBE 1 - Orbit

View from above orbital plane
View from above orbital plane
View from above satellite
View from above satellite

Ground track
Ground track

The orbit data is extracted from the following two-line orbital elements,

1 39161U 13021C   24106.64246283  .00003432  00000-0  50607-3 0  9998
2 39161  97.8325 175.0192 0010327  76.5683 283.6678 14.75923071587907
Epoch (UTC): 15 April 2024 15:25:08
Eccentricity: 0.0010327
inclination: 97.8325°
perigee height: 635 km
apogee height: 649 km
right ascension of ascending node: 175.0192°
argument of perigee: 76.5683°
revolutions per day: 14.75923071
mean anomaly at epoch: 283.6678°
orbit number at epoch: 58790

The dashed part of the orbit path shows where the satellite is in the earth's shadow,  

DLR